Effective Sunday, March 17, 2024, the National Weather Service National Data Buoy Center will discontinue its Dial-A-Buoy Interactive Voice Response system. For more information, see Service Change Notice 24-06 (PDF).

Station EBEF1 - 8726674 - East Bay, FL Image indicating link to RSS feed of recent meteorological observations for station EBEF1


Conditions at EBEF1 as of
(3:54 pm EST)
2054 GMT on 02/23/2024:
     

Click on the graph icon in the table below to see a time series plot of the last five days of that observation.

5-day plot - Atmospheric Pressure Atmospheric Pressure (PRES):29.78 in
5-day plot - Air Temperature Air Temperature (ATMP): 69.6 °F
5-day plot - Water Temperature Water Temperature (WTMP): 65.8 °F
NOS Water Level Observation Network Water Level
Previous observations
TIME
(EST)
5-day plot - Wind Direction
WDIR
 
5-day plot - Wind Speed
WSPD
kts
5-day plot - Wind Gust
GST
kts
5-day plot - Wave Height
WVHT
ft
5-day plot - Dominant Wave Period
DPD
sec
5-day plot - Average Wave Period
APD
sec
5-day plot - Mean Wave Direction
MWD
 
5-day plot - Atmospheric Pressure
PRES
in
5-day plot - Pressure Tendency
PTDY
in
5-day plot - Air Temperature
ATMP
°F
5-day plot - Water Temperature
WTMP
°F
5-day plot - Dew Point
DEWP
°F
5-day plot - Salinity
SAL
psu
5-day plot - Visibility
VIS
nmi
5-day plot - Tide (above MLLW)
TIDE
ft
2024-02-23 03:48 pm-------29.78- 69.4 65.8----
2024-02-23 03:42 pm-------29.78- 69.4 65.8----
2024-02-23 03:36 pm-------29.78- 69.6 65.8----
2024-02-23 03:30 pm-------29.78- 69.8 65.7----
2024-02-23 03:24 pm-------29.79- 69.6 65.8----
2024-02-23 03:18 pm-------29.79- 69.4 65.8----
2024-02-23 03:12 pm-------29.79- 69.3 65.8----
2024-02-23 03:06 pm-------29.79- 69.1 65.8----
2024-02-23 03:00 pm-------29.79-0.08 69.3 65.8----
2024-02-23 02:54 pm-------29.79- 69.1 65.8----
2024-02-23 02:48 pm-------29.79- 69.3 65.8----
2024-02-23 02:42 pm-------29.79- 69.3 65.8----
2024-02-23 02:36 pm-------29.79- 68.9 65.8----
2024-02-23 02:30 pm-------29.79- 69.1 65.8----
2024-02-23 02:24 pm-------29.80- 69.3 65.8----
2024-02-23 02:18 pm-------29.80- 69.3 65.8----
2024-02-23 02:12 pm-------29.81- 69.6 65.8----
2024-02-23 02:06 pm-------29.81- 69.8 65.8----
2024-02-23 02:00 pm-------29.82-0.08 69.8 65.7----
2024-02-23 01:54 pm-------29.82- 70.0 65.7----
2024-02-23 01:48 pm-------29.82- 70.0 65.8----
2024-02-23 01:42 pm-------29.82- 70.0 65.8----
2024-02-23 01:36 pm-------29.83- 70.2 65.8----
2024-02-23 01:30 pm-------29.83- 70.0 65.7----
2024-02-23 01:24 pm-------29.83- 70.3 65.7----
2024-02-23 01:18 pm-------29.84- 70.3 65.7----
2024-02-23 01:12 pm-------29.84- 70.5 65.7----
2024-02-23 01:06 pm-------29.84- 70.3 65.7----
2024-02-23 01:00 pm-------29.84-0.07 70.2 65.5----
2024-02-23 12:54 pm-------29.84- 69.8 65.1----
2024-02-23 12:48 pm-------29.84- 69.4 65.3----
2024-02-23 12:42 pm-------29.85- 69.4 65.1----
2024-02-23 12:36 pm-------29.85- 69.3 65.1----
2024-02-23 12:30 pm-------29.85- 69.3 65.1----
2024-02-23 12:24 pm-------29.85- 69.1 65.1----
2024-02-23 12:18 pm-------29.85- 69.1 65.1----
2024-02-23 12:12 pm-------29.86- 68.9 65.1----
2024-02-23 12:06 pm-------29.86- 68.9 65.1----
2024-02-23 12:00 pm-------29.87-0.04 68.9 65.1----
2024-02-23 11:54 am-------29.88- 68.9 65.1----
2024-02-23 11:48 am-------29.88- 68.9 65.1----
2024-02-23 11:42 am-------29.88- 68.9 65.1----
2024-02-23 11:36 am-------29.88- 68.9 65.1----
2024-02-23 11:30 am-------29.89- 68.7 65.1----
2024-02-23 11:24 am-------29.88- 69.1 65.1----
2024-02-23 11:18 am-------29.89- 69.1 65.1----
2024-02-23 11:12 am-------29.89- 68.9 65.3----
2024-02-23 11:06 am-------29.90- 68.9 65.1----
2024-02-23 11:00 am-------29.90-0.01 68.7 65.1----
2024-02-23 10:54 am-------29.90- 68.7 65.1----
2024-02-23 10:48 am-------29.91- 68.5 65.3----
2024-02-23 10:42 am-------29.91- 68.5 65.1----
2024-02-23 10:36 am-------29.91- 68.2 65.1----
2024-02-23 10:30 am-------29.91- 67.8 65.1----
2024-02-23 10:24 am-------29.91- 68.0 64.9----
2024-02-23 10:18 am-------29.91- 67.8 64.9----
2024-02-23 10:12 am-------29.91- 67.3 64.9----
2024-02-23 10:06 am-------29.91- 66.9 64.9----
2024-02-23 10:00 am-------29.91+0.00 66.9 64.8----
2024-02-23 09:54 am-------29.92- 66.7 64.8----
2024-02-23 09:48 am-------29.92- 66.9 64.8----
2024-02-23 09:42 am-------29.91- 66.9 64.8----
2024-02-23 09:36 am-------29.91- 66.6 64.8----
2024-02-23 09:30 am-------29.92- 66.0 64.8----
2024-02-23 09:24 am-------29.91- 65.5 64.8----
2024-02-23 09:18 am-------29.91- 65.1 64.8----
2024-02-23 09:12 am-------29.91- 64.8 64.8----
2024-02-23 09:06 am-------29.91- 64.6 64.8----
2024-02-23 09:00 am-------29.91+0.00 64.2 64.8----
2024-02-23 08:54 am-------29.91- 63.7 64.8----
2024-02-23 08:48 am-------29.91- 63.7 64.8----
2024-02-23 08:42 am-------29.91- 63.3 64.8----
2024-02-23 08:36 am-------29.91- 63.0 64.8----
2024-02-23 08:30 am-------29.91- 62.6 64.8----
2024-02-23 08:24 am-------29.91- 62.2 64.8----
2024-02-23 08:18 am-------29.91- 62.1 64.8----
2024-02-23 08:12 am-------29.91- 61.9 64.8----
2024-02-23 08:06 am-------29.91- 61.7 64.6----
2024-02-23 08:00 am-------29.91+0.00 61.3 64.6----
2024-02-23 07:54 am-------29.91- 61.2 64.6----
2024-02-23 07:48 am-------29.91- 61.0 64.6----
2024-02-23 07:42 am-------29.91- 60.8 64.6----
2024-02-23 07:36 am-------29.91- 60.6 64.6----
2024-02-23 07:30 am-------29.91- 60.6 64.6----
2024-02-23 07:24 am-------29.91- 60.4 64.6----
2024-02-23 07:18 am-------29.91- 59.5 64.6----
2024-02-23 07:12 am-------29.92- 59.0 64.6----
2024-02-23 07:06 am-------29.92- 59.4 64.8----
2024-02-23 07:00 am-------29.92+0.00 61.5 64.8----
2024-02-23 06:54 am-------29.92- 61.3 64.8----
2024-02-23 06:48 am-------29.92- 61.3 64.8----
2024-02-23 06:42 am-------29.92- 61.2 64.8----
2024-02-23 06:36 am-------29.92- 60.8 64.8----
2024-02-23 06:30 am-------29.92- 60.6 64.8----
2024-02-23 06:24 am-------29.92- 59.9 64.9----
2024-02-23 06:18 am-------29.92- 59.9 64.9----
2024-02-23 06:12 am-------29.91- 59.7 64.9----
2024-02-23 06:06 am-------29.91- 59.5 64.9----
2024-02-23 06:00 am-------29.91-0.02 59.2 64.9----
2024-02-23 05:54 am-------29.91- 57.4 64.9----
2024-02-23 05:48 am-------29.91- 57.2 64.9----
2024-02-23 05:42 am-------29.91- 57.4 64.9----
2024-02-23 05:36 am-------29.91- 57.2 64.9----
2024-02-23 05:30 am-------29.91- 56.1 64.9----
2024-02-23 05:24 am-------29.91- 54.5 64.9----
2024-02-23 05:18 am-------29.91- 53.1 64.9----
2024-02-23 05:12 am-------29.91- 52.3 64.9----
2024-02-23 05:06 am-------29.91- 52.5 64.9----
2024-02-23 05:00 am-------29.91-0.04 53.2 64.9----
2024-02-23 04:54 am-------29.91- 53.8 64.9----
2024-02-23 04:48 am-------29.91- 54.5 64.9----
2024-02-23 04:42 am-------29.92- 54.1 64.9----
2024-02-23 04:36 am-------29.92- 54.0 64.9----
2024-02-23 04:30 am-------29.92- 54.7 64.9----
2024-02-23 04:24 am-------29.92- 54.9 64.8----
2024-02-23 04:18 am-------29.92- 55.2 64.8----
2024-02-23 04:12 am-------29.92- 55.9 64.9----
2024-02-23 04:06 am-------29.92- 55.4 64.8----
2024-02-23 04:00 am-------29.92-0.04 54.3 64.8----
2024-02-23 03:54 am-------29.92- 53.8 64.9----
2024-02-23 03:48 am-------29.92- 53.6 64.8----
2024-02-23 03:42 am-------29.93- 54.5 64.8----
2024-02-23 03:36 am-------29.93- 54.1 64.8----
2024-02-23 03:30 am-------29.93- 54.5 64.8----
2024-02-23 03:24 am-------29.93- 54.7 64.8----
2024-02-23 03:18 am-------29.93- 54.1 64.8----
2024-02-23 03:12 am-------29.93- 53.2 64.8----
2024-02-23 03:06 am-------29.93- 53.6 64.9----
2024-02-23 03:00 am-------29.93-0.04 53.4 64.9----
2024-02-23 02:54 am-------29.93- 53.6 64.9----
2024-02-23 02:48 am-------29.93- 53.8 64.9----
2024-02-23 02:42 am-------29.93- 54.9 64.9----
2024-02-23 02:36 am-------29.93- 54.3 64.9----
2024-02-23 02:30 am-------29.93- 53.6 64.9----
2024-02-23 02:24 am-------29.93- 54.3 64.8----
2024-02-23 02:18 am-------29.93- 53.8 64.9----
2024-02-23 02:12 am-------29.94- 53.4 64.9----
2024-02-23 02:06 am-------29.94- 53.2 64.8----
2024-02-23 02:00 am-------29.95-0.05 52.9 64.8----
2024-02-23 01:54 am-------29.95- 52.9 64.8----
2024-02-23 01:48 am-------29.96- 54.1 64.8----
2024-02-23 01:42 am-------29.95- 54.0 64.8----
2024-02-23 01:36 am-------29.95- 54.1 64.8----
2024-02-23 01:30 am-------29.95- 54.0 64.8----
2024-02-23 01:24 am-------29.95- 54.3 64.8----
2024-02-23 01:18 am-------29.95- 54.7 64.8----
2024-02-23 01:12 am-------29.95- 55.0 64.8----
2024-02-23 01:06 am-------29.96- 54.5 64.8----
2024-02-23 01:00 am-------29.96-0.04 54.7 64.9----
2024-02-23 12:54 am-------29.96- 54.7 64.9----
2024-02-23 12:48 am-------29.96- 55.0 64.9----
2024-02-23 12:42 am-------29.96- 54.7 65.1----
2024-02-23 12:36 am-------29.97- 55.6 64.9----
2024-02-23 12:30 am-------29.97- 56.5 65.5----
2024-02-23 12:24 am-------29.97- 57.6 65.7----
2024-02-23 12:18 am-------29.97- 57.7 65.5----
2024-02-23 12:12 am-------29.98- 57.7 65.5----
2024-02-23 12:06 am-------29.98- 57.9 65.5----
2024-02-23 12:00 am-------29.97-0.02 57.9 65.5----
2024-02-22 11:54 pm-------29.97- 61.2 65.7----
2024-02-22 11:48 pm-------29.97- 61.3 65.7----
2024-02-22 11:42 pm-------29.97- 61.2 65.7----
2024-02-22 11:36 pm-------29.98- 61.3 65.7----
2024-02-22 11:30 pm-------29.98- 61.3 65.7----
2024-02-22 11:24 pm-------29.98- 61.5 65.7----
2024-02-22 11:18 pm-------29.98- 61.7 65.7----
2024-02-22 11:12 pm-------29.99- 61.5 65.7----
2024-02-22 11:06 pm-------29.99- 61.3 65.5----
2024-02-22 11:00 pm-------30.00-0.01 61.0 65.5----
2024-02-22 10:54 pm-------30.00- 61.0 65.5----
2024-02-22 10:48 pm-------30.00- 61.2 65.5----
2024-02-22 10:42 pm-------30.00- 61.2 65.3----
2024-02-22 10:36 pm-------30.00- 61.0 65.3----
2024-02-22 10:30 pm-------30.00- 60.6 65.3----
2024-02-22 10:24 pm-------30.01- 60.6 65.3----
2024-02-22 10:18 pm-------30.01- 60.6 65.3----
2024-02-22 10:12 pm-------30.01- 60.8 65.3----
2024-02-22 10:06 pm-------30.01- 60.8 65.3----
2024-02-22 10:00 pm-------30.01+0.00 60.8 65.3----
2024-02-22 09:54 pm-------30.01- 60.8 65.3----
2024-02-22 09:48 pm-------30.01- 60.8 65.3----
2024-02-22 09:42 pm-------30.01- 61.2 65.3----
2024-02-22 09:36 pm-------30.00- 61.3 65.3----
2024-02-22 09:30 pm-------30.00- 61.3 65.3----
2024-02-22 09:24 pm-------29.99- 61.7 65.3----
2024-02-22 09:18 pm-------29.99- 62.1 65.3----
2024-02-22 09:12 pm-------30.00- 62.2 65.3----
2024-02-22 09:06 pm-------30.00- 62.4 65.3----
2024-02-22 09:00 pm-------30.00-0.01 62.4 65.3----
2024-02-22 08:54 pm-------30.00- 62.6 65.3----
2024-02-22 08:48 pm-------30.00- 62.6 65.3----
2024-02-22 08:42 pm-------30.00- 62.8 65.3----
2024-02-22 08:36 pm-------30.00- 63.0 65.3----
2024-02-22 08:30 pm-------30.01- 63.1 65.3----
2024-02-22 08:24 pm-------30.01- 63.3 65.3----
2024-02-22 08:18 pm-------30.01- 63.3 65.5----
2024-02-22 08:12 pm-------30.01- 63.3 65.5----
2024-02-22 08:06 pm-------30.01- 63.3 65.5----
2024-02-22 08:00 pm-------30.01+0.02 63.5 65.1----
2024-02-22 07:54 pm-------30.01- 63.5 65.1----
2024-02-22 07:48 pm-------30.01- 63.7 64.9----
2024-02-22 07:42 pm-------30.01- 63.9 64.9----
2024-02-22 07:36 pm-------30.01- 63.9 64.9----
2024-02-22 07:30 pm-------30.02- 64.0 64.9----
2024-02-22 07:24 pm-------30.01- 64.4 64.9----
2024-02-22 07:18 pm-------30.01- 64.4 64.9----
2024-02-22 07:12 pm-------30.01- 64.4 64.9----
2024-02-22 07:06 pm-------30.01- 64.8 64.9----
2024-02-22 07:00 pm-------30.01-0.01 65.3 64.9----
2024-02-22 06:54 pm-------30.01- 65.5 64.9----
2024-02-22 06:48 pm-------30.01- 65.8 64.9----
2024-02-22 06:42 pm-------30.01- 65.8 64.9----
2024-02-22 06:36 pm-------30.01- 65.8 64.9----
2024-02-22 06:30 pm-------30.01-- 64.9----
2024-02-22 06:24 pm-------30.01-- 64.9----
2024-02-22 06:18 pm-------30.01- 66.7 64.9----
2024-02-22 06:00 pm-------30.01-0.02- 64.9----
2024-02-22 05:54 pm-------30.01-- 64.9----
2024-02-22 05:48 pm-------30.00- 67.1 64.9----
2024-02-22 05:42 pm-------30.00- 67.3 64.9----
2024-02-22 05:36 pm-------30.00- 67.3 64.9----
2024-02-22 05:30 pm-------29.99- 67.3 64.9----
2024-02-22 05:24 pm-------30.00- 67.1 65.1----
2024-02-22 05:18 pm-------29.99- 66.7 65.1----
2024-02-22 05:12 pm-------29.99- 67.3 64.9----
2024-02-22 05:06 pm-------29.99- 67.3 64.9----
2024-02-22 05:00 pm-------29.99-0.07 67.5 64.9----
2024-02-22 04:54 pm-------29.99- 67.8 64.9----
2024-02-22 04:48 pm-------29.99- 68.2 64.9----
2024-02-22 04:42 pm-------30.00- 68.4 65.1----
2024-02-22 04:36 pm-------30.00- 68.5 65.1----
2024-02-22 04:30 pm-------30.00- 68.5 65.1----
2024-02-22 04:24 pm-------30.00- 68.7 65.1----
2024-02-22 04:18 pm-------30.01- 68.9 65.1----
2024-02-22 04:12 pm-------30.01- 69.1 65.1----
2024-02-22 04:06 pm-------30.02- 69.1 65.1----
2024-02-22 04:00 pm-------30.02-0.07 69.1 65.1----
2024-02-22 03:54 pm-------30.02- 69.3 65.1----